{"data":{"norad_id":52576,"intl_designator":"2022-051AS","name":"STARLINK-3932","alt_names":[],"object_type":"PAYLOAD","status":"ACTIVE","operator":null,"country":"US","launch_date":"2022-05-13","launch_site_code":"AFWTR","launch_vehicle":null,"mission":null,"orbit_class":"UNKNOWN","rcs_meters":null,"size_class":null,"mass_kg":null,"dimensions":null,"purposes":["comms"],"wikipedia_slug":null,"has_3d_model":false,"image_url":null,"decayed_at":null,"tle_current":{"epoch":"2026-09-20T03:37:02.699616Z","epoch_age_seconds":93483,"freshness":"FRESH","line1":"1 52576U 22051AS  26263.15072569  .00000264  00000+0  18968-4 0  9996","line2":"2 52576  53.1596 319.0920 0001568  91.7394 268.3788 15.34385846241032","mean_motion":15.34385846,"eccentricity":0.0001568,"inclination_deg":53.1596,"raan_deg":319.092,"arg_perigee_deg":91.7394,"mean_anomaly_deg":268.3788,"bstar":1.8968e-5,"rev_number":24103,"period_min":93.848623783512,"perigee_km":461.67265885523,"apogee_km":463.81795954739,"semimajor_km":6840.8823092013,"source":"CELESTRAK","updated_at":"2026-09-20T09:00:40.064858Z"}}}